Date String (YYYY-MM-DD hh:mm:ss) UTC,Instrument flags,absolute air pressure of the measurement (hPa),sample flow rate (lpm),inlet stack bypass flow (lpm),air temperature of the measurement (°C),ambient temperature measured by the external sensor (°C),aerosol sample conditioner tube jacket temperature (°C),OPC LED temperature (°C),internal box temperature (°C),relative humidity of the measurement (%),span deviation,mass concentration of particles derived from Lorenz-Mie calculation of OPC scattering (μg/m³),mass concentration of particles derived from Lorenz-Mie calculation of OPC scattering (μg/m³),mass concentration of particles derived from Lorenz-Mie calculation of OPC scattering (μg/m³)
DateTimeUTC,F1_M11,P_M11,Q1_M11,Q2_M11,T1_M11,T2_M11,T3_M11,T4_M11,T5_M11,U1_M11,ZSPAN_M11,X2_M11,X0_M11,X1_M11
2024-02-10 02:00:00,SystemResetWarning,0823.4,5.00,000.00,021.2,020.6,000.0,029.8,023.1,16.2,0000.0,0004.76,0010.39,0004.27
2024-02-10 02:01:00,SystemResetWarning,0823.4,5.00,000.00,021.2,020.6,000.0,029.7,023.1,16.3,0000.0,0004.82,0010.70,0004.28
2024-02-10 02:02:00,SystemResetWarning,0823.4,5.00,000.00,021.2,020.6,000.0,029.7,023.1,16.2,0000.0,0004.85,0010.84,0004.29
2024-02-10 02:03:00,SystemResetWarning,0823.5,5.01,000.00,021.2,020.6,000.0,029.7,023.0,16.2,0000.0,0004.84,0010.74,0004.29
2024-02-10 02:04:00,SystemResetWarning,0823.5,5.01,000.00,021.2,020.6,000.0,029.7,023.0,16.4,0000.0,0004.80,0009.89,0004.29
2024-02-10 02:05:00,SystemResetWarning,0823.5,4.99,000.00,021.2,020.6,000.0,029.7,023.0,16.7,0000.0,0004.82,0009.54,0004.30
2024-02-10 02:06:00,SystemResetWarning,0823.5,5.00,000.00,021.2,020.6,000.0,029.7,023.0,16.8,0000.0,0004.76,0009.14,0004.29
2024-02-10 02:07:00,SystemResetWarning,0823.5,5.00,000.00,021.2,020.6,000.0,029.7,023.0,16.7,0000.0,0004.74,0008.44,0004.28
2024-02-10 02:08:00,SystemResetWarning,0823.5,5.00,000.00,021.2,020.6,000.0,029.7,023.0,16.7,0000.0,0004.75,0008.49,0004.27
2024-02-10 02:09:00,SystemResetWarning,0823.5,5.00,000.00,021.2,020.6,000.0,029.7,023.0,16.8,0000.0,0004.76,0008.49,0004.25
2024-02-10 02:10:00,SystemResetWarning,0823.4,5.00,000.00,021.2,020.6,000.0,029.7,023.0,17.0,0000.0,0004.74,0008.44,0004.23
2024-02-10 02:11:00,SystemResetWarning,0823.5,4.99,000.00,021.1,020.6,000.0,029.7,022.9,16.9,0000.0,0004.69,0008.19,0004.20
2024-02-10 02:12:00,SystemResetWarning,0823.5,5.00,000.00,021.1,020.6,000.0,029.7,023.0,16.7,0000.0,0004.62,0008.07,0004.17
2024-02-10 02:13:00,SystemResetWarning,0823.5,5.01,000.00,021.1,020.6,000.0,029.7,023.0,17.0,0000.0,0004.59,0008.07,0004.15
2024-02-10 02:14:00,SystemResetWarning,0823.5,5.00,000.00,021.1,020.6,000.0,029.7,023.0,16.9,0000.0,0004.57,0008.03,0004.14
2024-02-10 02:15:00,SystemResetWarning,0823.5,5.00,000.00,021.1,020.5,000.0,029.7,022.9,16.6,0000.0,0004.58,0008.09,0004.13
2024-02-10 02:16:00,SystemResetWarning,0823.5,5.01,000.00,021.1,020.5,000.0,029.7,022.9,16.6,0000.0,0004.58,0008.00,0004.13
2024-02-10 02:17:00,SystemResetWarning,0823.5,5.00,000.00,021.1,020.5,000.0,029.7,022.9,16.7,0000.0,0004.60,0008.13,0004.15
2024-02-10 02:18:00,SystemResetWarning,0823.6,5.00,000.00,021.1,020.5,000.0,029.6,022.9,16.8,0000.0,0004.67,0008.86,0004.17
2024-02-10 02:19:00,SystemResetWarning,0823.6,5.00,000.00,021.1,020.4,000.0,029.6,022.8,16.9,0000.0,0004.65,0008.96,0004.16
2024-02-10 02:20:00,SystemResetWarning,0823.6,4.99,000.00,021.0,020.4,000.0,029.6,022.8,16.9,0000.0,0004.63,0009.08,0004.15
2024-02-10 02:21:00,SystemResetWarning,0823.6,5.00,000.00,021.0,020.4,000.0,029.6,022.8,17.0,0000.0,0004.58,0009.64,0004.12
2024-02-10 02:22:00,SystemResetWarning,0823.6,5.00,000.00,021.0,020.4,000.0,029.6,022.8,17.1,0000.0,0004.55,0010.02,0004.10
2024-02-10 02:23:00,SystemResetWarning,0823.6,5.01,000.00,021.0,020.4,000.0,029.6,022.8,17.0,0000.0,0004.52,0009.85,0004.07
2024-02-10 02:24:00,SystemResetWarning,0823.6,5.00,000.00,021.0,020.4,000.0,029.6,022.8,17.1,0000.0,0004.46,0009.87,0004.03
2024-02-10 02:25:00,SystemResetWarning,0823.6,5.00,000.00,021.0,020.4,000.0,029.6,022.8,17.4,0000.0,0004.40,0010.41,0003.99
2024-02-10 02:26:00,SystemResetWarning,0823.6,5.00,000.00,021.0,020.4,000.0,029.5,022.8,17.4,0000.0,0004.35,0011.86,0003.94
2024-02-10 02:27:00,SystemResetWarning,0823.6,4.99,000.00,021.0,020.4,000.0,029.5,022.8,17.5,0000.0,0004.32,0012.69,0003.91
2024-02-10 02:28:00,SystemResetWarning,0823.6,4.99,000.00,020.9,020.4,000.0,029.5,022.7,17.5,0000.0,0004.33,0012.60,0003.89
2024-02-10 02:29:00,SystemResetWarning,0823.6,5.00,000.00,020.9,020.4,000.0,029.5,022.7,17.4,0000.0,0004.28,0011.98,0003.86
2024-02-10 02:30:00,SystemResetWarning,0823.5,5.01,000.00,020.9,020.3,000.0,029.5,022.7,17.4,0000.0,0004.26,0011.89,0003.83
2024-02-10 02:31:00,SystemResetWarning,0823.5,5.01,000.00,020.9,020.3,000.0,029.5,022.7,17.4,0000.0,0004.24,0012.10,0003.81
2024-02-10 02:32:00,SystemResetWarning,0823.5,4.99,000.00,020.9,020.3,000.0,029.5,022.7,17.4,0000.0,0004.24,0012.03,0003.79
2024-02-10 02:33:00,SystemResetWarning,0823.5,5.00,000.00,020.9,020.3,000.0,029.5,022.7,17.4,0000.0,0004.20,0011.41,0003.77
2024-02-10 02:34:00,SystemResetWarning,0823.5,5.00,000.00,020.9,020.3,000.0,029.5,022.6,17.5,0000.0,0004.18,0011.31,0003.76
2024-02-10 02:35:00,SystemResetWarning,0823.5,5.01,000.00,020.9,020.3,000.0,029.4,022.6,17.6,0000.0,0004.21,0011.36,0003.77
2024-02-10 02:36:00,SystemResetWarning,0823.5,4.99,000.00,020.8,020.2,000.0,029.4,022.6,17.6,0000.0,0004.23,0010.92,0003.77
2024-02-10 02:37:00,SystemResetWarning,0823.5,5.00,000.00,020.8,020.2,000.0,029.4,022.6,17.7,0000.0,0004.25,0009.63,0003.78
2024-02-10 02:38:00,SystemResetWarning,0823.5,5.00,000.00,020.8,020.2,000.0,029.4,022.6,17.7,0000.0,0004.24,0008.40,0003.77
2024-02-10 02:39:00,SystemResetWarning,0823.6,5.00,000.00,020.8,020.2,000.0,029.4,022.6,17.8,0000.0,0004.16,0008.63,0003.72
2024-02-10 02:40:00,SystemResetWarning,0823.6,5.00,000.00,020.8,020.2,000.0,029.4,022.6,17.6,0000.0,0004.13,0009.01,0003.68
2024-02-10 02:41:00,SystemResetWarning,0823.6,5.01,000.00,020.8,020.2,000.0,029.4,022.6,17.5,0000.0,0004.12,0009.63,0003.67
2024-02-10 02:42:00,SystemResetWarning,0823.6,5.00,000.00,020.8,020.2,000.0,029.4,022.6,17.5,0000.0,0004.11,0010.03,0003.66
2024-02-10 02:43:00,SystemResetWarning,0823.6,5.01,000.00,020.8,020.3,000.0,029.4,022.6,17.7,0000.0,0004.11,0010.19,0003.66
2024-02-10 02:44:00,SystemResetWarning,0823.6,5.00,000.00,020.8,020.3,000.0,029.4,022.6,17.8,0000.0,0004.14,0010.77,0003.67
2024-02-10 02:45:00,SystemResetWarning,0823.6,4.99,000.00,020.8,020.3,000.0,029.4,022.6,17.9,0000.0,0004.19,0010.94,0003.69
2024-02-10 02:46:00,SystemResetWarning,0823.6,4.99,000.00,020.8,020.3,000.0,029.4,022.6,18.0,0000.0,0004.23,0010.96,0003.72
2024-02-10 02:47:00,SystemResetWarning,0823.7,5.01,000.00,020.8,020.3,000.0,029.4,022.6,17.9,0000.0,0004.27,0010.99,0003.75
2024-02-10 02:48:00,SystemResetWarning,0823.7,5.01,000.00,020.8,020.3,000.0,029.3,022.6,18.0,0000.0,0004.33,0012.28,0003.78
2024-02-10 02:49:00,SystemResetWarning,0823.7,5.00,000.00,020.8,020.3,000.0,029.3,022.6,18.0,0000.0,0004.38,0013.29,0003.80
2024-02-10 02:50:00,SystemResetWarning,0823.7,5.00,000.00,020.8,020.3,000.0,029.3,022.6,17.8,0000.0,0004.41,0014.53,0003.82
2024-02-10 02:51:00,SystemResetWarning,0823.7,4.99,000.00,020.8,020.3,000.0,029.3,022.6,17.9,0000.0,0004.44,0015.22,0003.84
2024-02-10 02:52:00,SystemResetWarning,0823.7,4.99,000.00,020.8,020.3,000.0,029.3,022.6,18.0,0000.0,0004.45,0015.14,0003.87
2024-02-10 02:53:00,SystemResetWarning,0823.7,4.99,000.00,020.8,020.2,000.0,029.3,022.6,17.9,0000.0,0004.46,0015.01,0003.89
2024-02-10 02:54:00,SystemResetWarning,0823.7,5.00,000.00,020.8,020.2,000.0,029.3,022.5,18.1,0000.0,0004.51,0014.74,0003.93
2024-02-10 02:55:00,SystemResetWarning,0823.7,5.00,000.00,020.7,020.2,000.0,029.3,022.5,18.1,0000.0,0004.54,0014.20,0003.95
2024-02-10 02:56:00,SystemResetWarning,0823.7,5.00,000.00,020.7,020.1,000.0,029.3,022.4,18.2,0000.0,0004.56,0014.68,0003.96
2024-02-10 02:57:00,SystemResetWarning,0823.7,4.99,000.00,020.7,020.1,000.0,029.3,022.4,18.1,0000.0,0004.50,0014.84,0003.95
2024-02-10 02:58:00,SystemResetWarning,0823.7,5.00,000.00,020.7,020.1,000.0,029.3,022.4,18.2,0000.0,0004.46,0015.46,0003.95
2024-02-10 02:59:00,SystemResetWarning,0823.7,5.01,000.00,020.7,020.0,000.0,029.2,022.4,18.4,0000.0,0004.41,0015.54,0003.95
